Main page
METAR-TAF:

METAR-TAF

Airports :

Rasht Airport

Rasht, Iran

latitude: 37-12N, longitude: 049-38E, elevation: -7 m

Current weather observation

The report was made 45 minutes ago, at 01:00 UTC
Calm wind
Temperature 3°C
Humidity 93%
Pressure 1022 hPa
Visibility: 6000 m

METAR: OIGG 200100Z 00000KT 6000 NSC 03/02 Q1022

Time: 05:15 (01:45 UTC)


TAF: missing

Weather observations and forecasts of more than 4000 airports (METAR and TAF reports).

The available stations are represented by yellow and red dots on the map.

Hover mouse over dot to see the name of the station.

Then click to see weather observations and forecasts.

To change the map : click on the green buttons with a black cross to zoom in, on the green button with a dash to zoom out, or on the green arrows for adjacent maps.


METAR-TAF: